Weather in Sychevo

Russia / Kurgan Oblast     55˚26′14″N   64˚57′21″E
temp.,
°C
wind,
m/s
gust,
m/s
humid.,
%
clouds,
%
prec.,
mm/h
press.,
hPa
HPBL,
m
16 january, sat
sat1623:00−11˚s51286100 0.0 1021493
02:00−11˚s4118998 0.0 1018399
05:00−9˚s4108799 0.0 1016402
08:00−9˚sse4989100 0.0 1014360
11:00−9˚sse4988100 0.0 1011343
14:00−8˚s41087100 0.0 1008454
17:00−9˚s3992100 0.0 1006379
20:00−9˚sw3993100 0.0 1004390
17 january, sun
sun1723:00−8˚sw41093100 0.1 1004322
02:00−9˚wsw4129256 0.0 1005314
05:00−11˚wsw498828 0.0 1007219
08:00−13˚ssw39920 0.0 1006228
11:00−11˚sw6148948 0.0 1005586
14:00−8˚sw71488100 0.1 1003977
17:00−9˚wsw71390100 0.6 1003989
20:00−13˚w6148161 0.1 1007629
18 january, mon
mon1823:00−16˚w5128530 0.1 1010395
02:00−18˚w410890 0.0 1013256
05:00−20˚w37920 0.0 1014166
08:00−22˚w35940 0.0 101698
11:00−20˚w359125 0.0 1017178
14:00−17˚wsw358931 0.0 1017280
17:00−21˚w239532 0.0 101849
20:00−23˚wsw349432 0.0 101887
19 january, tue
tue1923:00−23˚sw359316 0.0 101888
02:00−24˚w23940 0.0 101845
05:00−23˚w239433 0.0 101836
08:00−23˚nnw2394100 0.0 101946
11:00−21˚nne2390100 0.0 1019168
14:00−19˚ne2491100 0.0 1019277
17:00−20˚ne4895100 0.0 1018270
20:00−20˚ne51095100 0.0 1017373
20 january, wed
wed2023:00−19˚ne51097100 0.9 1016408
02:00−20˚ne61198100 1.7 1015419
05:00−21˚ne61298100 3.4 1015449
08:00−21˚ne51197100 1.6 1016511
11:00−21˚ne4897100 2.9 1018529
14:00−21˚nne4794100 0.4 1021449
17:00−22˚nne2596100 0.4 1024229
20:00−24˚nne2496100 0.0 1026111